OAS044 SKBO-MMMX

Flight info

Callsign OAS044
Flight time N/A
Altitude 34000
Route TOBK4R VASIL UL423 PULOX DCT SIGUN UM549 TBG UM419 ASOKU DCT UGATA UL655 AVALI UT169 UMAVO UT101 ENAGA ENAG3A
Aircraft B77W/H-SDE1E2E3FGHIJ2J3J4J5M1RWXY/LB1D1

Departure

Time N/A
Airport El Dorado International Airport (SKBO)

Arrival

Time 2026-05-06 16:37
Airport Mexico City Benito Juárez International Airport (MMMX)
Time Latitude Longitude Altitude Speed Heading
2026-05-06 15:41 17.02842 -92.58371 36023 ft 600 kts 308°
2026-05-06 15:41 17.05487 -92.61743 36017 ft 600 kts 308°
2026-05-06 15:41 17.10773 -92.68487 36024 ft 599 kts 308°
2026-05-06 15:42 17.16060 -92.75239 36007 ft 602 kts 307°
2026-05-06 15:42 17.21395 -92.82059 36013 ft 610 kts 308°
2026-05-06 15:43 17.26804 -92.88979 36005 ft 618 kts 308°
2026-05-06 15:43 17.32258 -92.95963 36015 ft 622 kts 308°
2026-05-06 15:44 17.37741 -93.02988 36016 ft 623 kts 307°
2026-05-06 15:44 17.43226 -93.10026 35998 ft 624 kts 307°
2026-05-06 15:45 17.48721 -93.17086 36001 ft 627 kts 307°
2026-05-06 15:45 17.54240 -93.24184 36014 ft 629 kts 307°
2026-05-06 15:46 17.59731 -93.31253 36008 ft 630 kts 307°
2026-05-06 15:46 17.65301 -93.38431 36005 ft 630 kts 307°
2026-05-06 15:47 17.70792 -93.45514 36004 ft 630 kts 307°
2026-05-06 15:47 17.76316 -93.52648 36004 ft 629 kts 307°
2026-05-06 15:48 17.81824 -93.59769 36004 ft 628 kts 307°
2026-05-06 15:48 17.87322 -93.66885 36002 ft 627 kts 307°
2026-05-06 15:49 17.92806 -93.73991 36002 ft 626 kts 307°
2026-05-06 15:49 17.98282 -93.81095 36005 ft 625 kts 307°
2026-05-06 15:50 18.03756 -93.88202 36004 ft 625 kts 307°
2026-05-06 15:50 18.09218 -93.95303 36005 ft 625 kts 307°
2026-05-06 15:51 18.13758 -94.01211 36004 ft 625 kts 307°
2026-05-06 15:51 18.19214 -94.08318 36005 ft 625 kts 307°
2026-05-06 15:52 18.24670 -94.15433 36002 ft 625 kts 307°
2026-05-06 15:52 18.30127 -94.22558 36005 ft 625 kts 307°
2026-05-06 15:53 18.35577 -94.29680 36010 ft 625 kts 307°
2026-05-06 15:53 18.41036 -94.36822 36001 ft 626 kts 307°
2026-05-06 15:54 18.46487 -94.43963 36003 ft 626 kts 307°
2026-05-06 15:54 18.51935 -94.51107 36005 ft 626 kts 307°
2026-05-06 15:55 18.57383 -94.58260 36006 ft 626 kts 307°
2026-05-06 15:55 18.62835 -94.65425 36005 ft 626 kts 307°
2026-05-06 15:56 18.68271 -94.72579 36005 ft 626 kts 307°
2026-05-06 15:56 18.73719 -94.79756 36003 ft 626 kts 307°
2026-05-06 15:57 18.79156 -94.86926 36002 ft 626 kts 307°
2026-05-06 15:57 18.84590 -94.94102 36006 ft 626 kts 307°
2026-05-06 15:58 18.90026 -95.01288 36004 ft 626 kts 307°
2026-05-06 15:58 18.95449 -95.08466 36005 ft 626 kts 307°
2026-05-06 15:59 19.00879 -95.15661 36003 ft 626 kts 307°
2026-05-06 15:59 19.06306 -95.22858 36006 ft 626 kts 307°
2026-05-06 16:00 19.11732 -95.30061 36005 ft 626 kts 307°
2026-05-06 16:00 19.17147 -95.37262 36003 ft 626 kts 307°
2026-05-06 16:01 19.22530 -95.44427 36002 ft 626 kts 307°
2026-05-06 16:01 19.27976 -95.51687 36005 ft 626 kts 307°
2026-05-06 16:02 19.33387 -95.58906 36004 ft 626 kts 307°
2026-05-06 16:02 19.38755 -95.66078 36006 ft 626 kts 307°
2026-05-06 16:03 19.44161 -95.73309 36006 ft 626 kts 306°
2026-05-06 16:03 19.49564 -95.80544 36001 ft 626 kts 306°
2026-05-06 16:04 19.54970 -95.87793 36003 ft 626 kts 306°
2026-05-06 16:04 19.60371 -95.95043 36001 ft 626 kts 306°
2026-05-06 16:05 19.65763 -96.02290 36000 ft 626 kts 306°
2026-05-06 16:05 19.71153 -96.09543 36001 ft 626 kts 306°
2026-05-06 16:06 19.76541 -96.16802 36002 ft 626 kts 306°
2026-05-06 16:06 19.81923 -96.24063 36005 ft 626 kts 306°
2026-05-06 16:07 19.87303 -96.31328 36007 ft 626 kts 306°
2026-05-06 16:07 19.92683 -96.38604 36005 ft 626 kts 306°
2026-05-06 16:08 19.98051 -96.45873 36002 ft 626 kts 309°
2026-05-06 16:08 20.03395 -96.53125 36003 ft 618 kts 313°
2026-05-06 16:09 20.08677 -96.60291 36001 ft 614 kts 313°
2026-05-06 16:09 20.13937 -96.67443 36003 ft 613 kts 311°
2026-05-06 16:10 20.16237 -96.71289 35991 ft 619 kts 298°
2026-05-06 16:10 20.17828 -96.75546 36011 ft 621 kts 286°
2026-05-06 16:10 20.18769 -96.80034 36012 ft 620 kts 275°
2026-05-06 16:10 20.18965 -96.84586 35998 ft 612 kts 262°
2026-05-06 16:11 20.18275 -96.93608 36002 ft 614 kts 263°
2026-05-06 16:11 20.17606 -97.02706 36007 ft 619 kts 268°
2026-05-06 16:12 20.17071 -97.11818 36011 ft 623 kts 269°
2026-05-06 16:12 20.16569 -97.21046 36014 ft 626 kts 269°
2026-05-06 16:13 20.16045 -97.30321 36007 ft 629 kts 269°
2026-05-06 16:13 20.15500 -97.39622 35989 ft 631 kts 268°
2026-05-06 16:14 20.14946 -97.48930 35985 ft 613 kts 268°
2026-05-06 16:14 20.14682 -97.53343 35982 ft 599 kts 269°
2026-05-06 16:14 20.14419 -97.57755 35997 ft 596 kts 269°
2026-05-06 16:15 20.13897 -97.66541 35886 ft 596 kts 269°
2026-05-06 16:15 20.13631 -97.70948 35590 ft 596 kts 269°
2026-05-06 16:15 20.13348 -97.75358 35185 ft 599 kts 266°
2026-05-06 16:16 20.12823 -97.79763 34779 ft 603 kts 261°
2026-05-06 16:16 20.11996 -97.84158 33985 ft 610 kts 255°
2026-05-06 16:16 20.10785 -97.88501 33280 ft 610 kts 251°
2026-05-06 16:16 20.09493 -97.92774 32813 ft 604 kts 251°
2026-05-06 16:17 20.08214 -97.97020 32306 ft 600 kts 251°
2026-05-06 16:17 20.06972 -98.01248 31826 ft 596 kts 252°
2026-05-06 16:17 20.05771 -98.05445 31301 ft 593 kts 252°
2026-05-06 16:17 20.04590 -98.09628 30852 ft 588 kts 252°
2026-05-06 16:18 20.03421 -98.13768 30386 ft 583 kts 252°
2026-05-06 16:18 20.02252 -98.17879 29970 ft 578 kts 252°
2026-05-06 16:18 20.01212 -98.21971 29761 ft 570 kts 256°
2026-05-06 16:18 20.00347 -98.26093 29568 ft 574 kts 258°
2026-05-06 16:19 19.99554 -98.30289 29362 ft 581 kts 259°
2026-05-06 16:19 19.98775 -98.34511 29148 ft 584 kts 259°
2026-05-06 16:19 19.97976 -98.38743 28906 ft 583 kts 258°
2026-05-06 16:19 19.97151 -98.42956 28650 ft 582 kts 258°
2026-05-06 16:20 19.96303 -98.47161 28440 ft 580 kts 258°
2026-05-06 16:20 19.95450 -98.51329 28207 ft 578 kts 258°
2026-05-06 16:20 19.94618 -98.55392 26738 ft 531 kts 256°
2026-05-06 16:20 19.93879 -98.59023 26827 ft 479 kts 256°
2026-05-06 16:21 19.93203 -98.62341 26794 ft 440 kts 256°
2026-05-06 16:21 19.92580 -98.65383 26829 ft 431 kts 256°
2026-05-06 16:21 19.91935 -98.68514 26858 ft 435 kts 256°
2026-05-06 16:21 19.91291 -98.71654 26905 ft 433 kts 256°
2026-05-06 16:22 19.90673 -98.74779 26895 ft 432 kts 258°
2026-05-06 16:22 19.90246 -98.77971 26335 ft 438 kts 262°
2026-05-06 16:22 19.89953 -98.81190 25890 ft 436 kts 262°
2026-05-06 16:22 19.89658 -98.84388 25410 ft 434 kts 262°
2026-05-06 16:23 19.89325 -98.87569 24950 ft 432 kts 261°
2026-05-06 16:23 19.89006 -98.90738 24476 ft 430 kts 264°
2026-05-06 16:23 19.89015 -98.93854 24016 ft 431 kts 271°
2026-05-06 16:23 19.89252 -98.97025 23464 ft 431 kts 273°
2026-05-06 16:24 19.89556 -99.00183 22925 ft 429 kts 274°
2026-05-06 16:24 19.89848 -99.03326 22396 ft 426 kts 273°
2026-05-06 16:24 19.90107 -99.06446 21876 ft 423 kts 272°
2026-05-06 16:24 19.90338 -99.09558 21352 ft 420 kts 272°
2026-05-06 16:25 19.90550 -99.12648 20825 ft 415 kts 272°
2026-05-06 16:25 19.90746 -99.15595 20567 ft 385 kts 272°
2026-05-06 16:25 19.90928 -99.18328 20352 ft 358 kts 272°
2026-05-06 16:25 19.91097 -99.20876 20055 ft 336 kts 272°
2026-05-06 16:26 19.91227 -99.23300 19551 ft 322 kts 265°
2026-05-06 16:26 19.90740 -99.25560 18827 ft 311 kts 240°
2026-05-06 16:26 19.89455 -99.27338 18364 ft 302 kts 217°
2026-05-06 16:26 19.87704 -99.28540 17888 ft 298 kts 202°
2026-05-06 16:27 19.85742 -99.29146 17310 ft 289 kts 180°
2026-05-06 16:27 19.83737 -99.29175 17091 ft 298 kts 178°
2026-05-06 16:27 19.81601 -99.29156 16582 ft 310 kts 178°
2026-05-06 16:27 19.79457 -99.29134 16228 ft 301 kts 178°
2026-05-06 16:28 19.77444 -99.29119 15961 ft 287 kts 178°
2026-05-06 16:28 19.75417 -99.29109 15717 ft 291 kts 178°
2026-05-06 16:28 19.73368 -99.29100 15459 ft 296 kts 178°
2026-05-06 16:28 19.71332 -99.29095 15193 ft 298 kts 178°
2026-05-06 16:29 19.70023 -99.29094 15020 ft 298 kts 178°
2026-05-06 16:29 19.67941 -99.29092 14744 ft 299 kts 178°
2026-05-06 16:29 19.65893 -99.29091 14450 ft 299 kts 178°
2026-05-06 16:29 19.63819 -99.29091 14170 ft 297 kts 178°
2026-05-06 16:30 19.61762 -99.29090 13890 ft 294 kts 178°
2026-05-06 16:30 19.60406 -99.29000 13717 ft 286 kts 165°
2026-05-06 16:30 19.58181 -99.27842 13330 ft 259 kts 141°
2026-05-06 16:30 19.56765 -99.26717 13113 ft 253 kts 142°
2026-05-06 16:31 19.55323 -99.25581 12863 ft 264 kts 142°
2026-05-06 16:31 19.53840 -99.24420 12578 ft 265 kts 142°
2026-05-06 16:31 19.52210 -99.23567 12267 ft 260 kts 168°
2026-05-06 16:31 19.50468 -99.23459 11995 ft 243 kts 178°
2026-05-06 16:32 19.48829 -99.23444 11736 ft 227 kts 177°
2026-05-06 16:32 19.47255 -99.23425 11531 ft 228 kts 178°
2026-05-06 16:32 19.45666 -99.23401 11273 ft 229 kts 178°
2026-05-06 16:32 19.44074 -99.23375 11009 ft 229 kts 177°
2026-05-06 16:33 19.42489 -99.23349 10732 ft 223 kts 178°
2026-05-06 16:33 19.40984 -99.23323 10454 ft 209 kts 176°
2026-05-06 16:33 19.39605 -99.23143 10197 ft 195 kts 159°
2026-05-06 16:34 19.37609 -99.21204 9803 ft 204 kts 114°
2026-05-06 16:34 19.37282 -99.19781 9557 ft 198 kts 85°
2026-05-06 16:34 19.37591 -99.18390 9440 ft 194 kts 71°
2026-05-06 16:34 19.38113 -99.17051 9360 ft 199 kts 66°
2026-05-06 16:35 19.38723 -99.15710 9231 ft 205 kts 61°
2026-05-06 16:35 19.39416 -99.14452 8968 ft 184 kts 59°
2026-05-06 16:35 19.40029 -99.13369 8911 ft 169 kts 59°
2026-05-06 16:35 19.40645 -99.12265 8604 ft 178 kts 59°
2026-05-06 16:36 19.41270 -99.11146 8195 ft 175 kts 59°
2026-05-06 16:36 19.41880 -99.10051 7807 ft 171 kts 59°
2026-05-06 16:36 19.42280 -99.09338 7596 ft 170 kts 60°
2026-05-06 16:36 19.42855 -99.08311 7352 ft 172 kts 59°
2026-05-06 16:37 19.43584 -99.07018 7307 ft 109 kts 60°
2026-05-06 16:37 19.43770 -99.06681 7308 ft 49 kts 59°
2026-05-06 16:37 19.43880 -99.06531 7308 ft 24 kts 39°
2026-05-06 16:37 19.43934 -99.06506 7307 ft 6 kts 358°
2026-05-06 16:38 19.43955 -99.06545 7307 ft 7 kts 280°
2026-05-06 16:38 19.43959 -99.06594 7307 ft 7 kts 274°
2026-05-06 16:38 19.43960 -99.06643 7307 ft 8 kts 272°
2026-05-06 16:38 19.43962 -99.06748 7307 ft 17 kts 270°
2026-05-06 16:39 19.43958 -99.06875 7309 ft 17 kts 266°
2026-05-06 16:39 19.43913 -99.06991 7309 ft 17 kts 239°
2026-05-06 16:39 19.43854 -99.07102 7308 ft 17 kts 240°
2026-05-06 16:39 19.43811 -99.07186 7308 ft 8 kts 263°
2026-05-06 16:40 19.43832 -99.07242 7307 ft 9 kts 322°
2026-05-06 16:40 19.43870 -99.07289 7307 ft 9 kts 275°
2026-05-06 16:40 19.43845 -99.07349 7307 ft 9 kts 239°
2026-05-06 16:40 19.43813 -99.07406 7307 ft 9 kts 239°
2026-05-06 16:41 19.43777 -99.07472 7307 ft 11 kts 239°
2026-05-06 16:41 19.43735 -99.07545 7307 ft 11 kts 239°
2026-05-06 16:41 19.43694 -99.07617 7307 ft 11 kts 239°
2026-05-06 16:41 19.43653 -99.07689 7307 ft 11 kts 239°
2026-05-06 16:42 19.43615 -99.07755 7307 ft 11 kts 239°
2026-05-06 16:42 19.43583 -99.07812 7307 ft 11 kts 239°
2026-05-06 16:42 19.43542 -99.07884 7307 ft 11 kts 239°
2026-05-06 16:42 19.43501 -99.07957 7307 ft 11 kts 236°
2026-05-06 16:43 19.43461 -99.08030 7307 ft 11 kts 241°
2026-05-06 16:43 19.43421 -99.08103 7307 ft 11 kts 239°
2026-05-06 16:43 19.43381 -99.08176 7307 ft 11 kts 239°
2026-05-06 16:43 19.43340 -99.08249 7307 ft 11 kts 239°
2026-05-06 16:44 19.43323 -99.08285 7307 ft 4 kts 258°
2026-05-06 16:44 19.43340 -99.08318 7308 ft 6 kts 320°
2026-05-06 16:44 19.43375 -99.08338 7307 ft 6 kts 328°
2026-05-06 16:44 19.43378 -99.08340 7307 ft 0 kts 328°